Location: Asheville, NC
(35.6000°N, 82.5500°W)
Time: 20:44:33
(UTC-04:00)

Vanguard 2 - Pass Details

Date: 11 March 2018
Orbit: 553 x 2939 km, 32.9° (Epoch: 20 June)

Event Time Altitude Azimuth Distance (km) Brightness Sun altitude
Rises 15:40:17 0° 271° (W) 6,587 12.7 41.8°
Reaches altitude 10° 15:44:29 10° 270° (W) 5,690 12.6 41.3°
Maximum altitude 16:02:36 80° 187° (S) 2,818 11.2 38.6°
Drops below altitude 10° 16:17:08 10° 104° (ESE) 4,704 11.3 36.4°
Sets 16:20:15 0° 103° (ESE) 5,442 11.6 35.9°
